Temp
-6 -6 -6 -6 -6 -7 -7 -8 -8 -8 -8 -8 -9 -9 -9 -9 -9 -9 -9 -9 -9 -9 -8 -9 -10 -10 -10 -10 -10 -10 -10 -10 -10 -11 -12 -12 -12 -12 -12 -12 -12 -11 -10
-6 -6 -6 -7 -7 -7 -7 -8 -8 -9 -9 -9 -9 -9 -9 -9 -9 -9 -9 -9 -9 -9 -9 -10 -10 -10 -10 -10 -10 -10 -10 -11 -11 -11 -12 -13 -13 -13 -13 -13 -12 -10 -10
-7 -6 -6 -7 -7 -8 -8 -8 -9 -9 -9 -9 -9 -9 -10 -9 -9 -9 -9 -9 -10 -9 -10 -11 -9 -9 -10 -10 -10 -11 -11 -11 -12 -12 -13 -13 -13 -13 -13 -12 -11 -10 -10
-6 -7 -7 -7 -7 -8 -8 -8 -9 -9 -9 -9 -9 -9 -9 -9 -9 -9 -9 -9 -10 -10 -10 -10 -9 -10 -10 -10 -11 -11 -11 -12 -12 -13 -13 -13 -14 -14 -12 -11 -12 -11 -10
-7 -7 -7 -7 -8 -8 -8 -8 -8 -9 -9 -9 -9 -9 -9 -9 -9 -9 -10 -10 -10 -10 -11 -11 -10 -10 -11 -11 -12 -11 -12 -12 -13 -13 -13 -14 -14 -13 -12 -11 -11 -11 -10
-7 -7 -7 -7 -8 -8 -8 -8 -8 -9 -9 -9 -9 -9 -9 -9 -10 -10 -10 -10 -10 -10 -12 -12 -11 -11 -11 -12 -11 -12 -12 -12 -13 -13 -14 -14 -14 -13 -12 -11 -11 -11 -11
-7 -7 -7 -8 -8 -8 -8 -8 -9 -8 -8 -9 -9 -9 -10 -10 -10 -10 -10 -10 -11 -10 -11 -12 -12 -11 -12 -12 -12 -13 -13 -14 -13 -14 -14 -15 -14 -13 -12 -12 -11 -11 -10
-7 -7 -7 -8 -8 -8 -8 -8 -8 -8 -9 -9 -10 -10 -10 -10 -10 -10 -11 -10 -10 -10 -10 -11 -11 -12 -12 -12 -13 -13 -14 -14 -14 -15 -15 -16 -14 -12 -12 -11 -11 -11 -11
-7 -7 -7 -8 -8 -8 -8 -8 -8 -9 -9 -10 -10 -10 -10 -10 -9 -10 -10 -11 -10 -10 -10 -11 -12 -12 -12 -12 -13 -14 -14 -14 -15 -15 -15 -15 -15 -13 -12 -12 -12 -11 -11
-8 -8 -8 -8 -8 -8 -8 -8 -9 -10 -10 -10 -10 -10 -11 -10 -10 -10 -10 -10 -11 -10 -10 -11 -12 -12 -12 -13 -13 -14 -14 -14 -15 -15 -15 -15 -14 -13 -12 -11 -11 -11 -11
-7 -8 -8 -8 -8 -8 -8 -9 -9 -10 -10 -11 -10 -10 -9 -10 -10 -10 -10 -11 -11 -11 -10 -12 -12 -12 -13 -13 -13 -14 -14 -15 -15 -15 -15 -16 -15 -13 -13 -11 -11 -11 -11
-7 -8 -8 -8 -8 -8 -8 -9 -10 -10 -10 -11 -11 -10 -10 -10 -11 -11 -10 -11 -12 -11 -12 -12 -12 -12 -13 -13 -14 -14 -14 -15 -15 -15 -14 -15 -16 -14 -13 -11 -11 -11 -11
-8 -8 -8 -8 -8 -8 -9 -9 -10 -10 -10 -10 -10 -10 -11 -11 -10 -11 -10 -11 -11 -12 -12 -12 -12 -13 -13 -13 -14 -14 -14 -15 -15 -15 -15 -15 -15 -15 -14 -13 -11 -11 -11
-8 -8 -8 -8 -8 -9 -9 -10 -9 -9 -10 -10 -9 -10 -10 -10 -10 -10 -11 -12 -12 -12 -12 -12 -13 -13 -13 -14 -14 -14 -14 -15 -15 -15 -15 -15 -15 -15 -16 -16 -13 -12 -12
-8 -8 -8 -8 -9 -9 -9 -9 -9 -9 -9 -10 -10 -10 -10 -10 -10 -10 -11 -11 -12 -12 -12 -13 -13 -13 -14 -14 -14 -14 -14 -15 -15 -15 -15 -15 -15 -15 -15 -16 -16 -14 -12
-8 -8 -8 -9 -9 -9 -9 -9 -9 -10 -10 -10 -10 -10 -10 -10 -10 -11 -11 -12 -12 -12 -13 -13 -14 -14 -14 -14 -15 -15 -15 -14 -15 -15 -15 -15 -15 -15 -15 -15 -15 -16 -15
-8 -8 -8 -9 -9 -9 -9 -9 -9 -10 -10 -10 -10 -10 -10 -10 -11 -11 -11 -12 -12 -13 -13 -14 -14 -14 -14 -15 -15 -15 -15 -15 -15 -15 -15 -15 -15 -15 -15 -15 -15 -15 -16
-9 -9 -9 -9 -9 -9 -9 -9 -10 -10 -10 -10 -10 -10 -10 -10 -11 -11 -12 -13 -13 -13 -13 -14 -14 -14 -15 -15 -15 -15 -15 -15 -15 -15 -15 -15 -15 -15 -15 -15 -15 -15 -15
-9 -9 -8 -9 -9 -9 -9 -9 -9 -10 -10 -10 -10 -10 -10 -11 -12 -12 -13 -13 -13 -14 -14 -14 -14 -14 -15 -15 -15 -15 -15 -15 -15 -15 -15 -15 -15 -15 -15 -15 -15 -15 -15
-8 -8 -8 -8 -9 -9 -9 -9 -10 -11 -10 -10 -10 -11 -11 -12 -12 -13 -13 -13 -14 -14 -14 -14 -14 -15 -15 -15 -15 -15 -15 -15 -15 -15 -15 -15 -15 -15 -14 -15 -15 -15 -15
-9 -8 -8 -9 -10 -10 -10 -10 -10 -10 -10 -11 -11 -11 -12 -12 -13 -13 -13 -14 -14 -14 -14 -14 -14 -15 -15 -15 -15 -15 -15 -15 -15 -15 -15 -15 -15 -15 -15 -15 -15 -15 -15
-9 -9 -9 -9 -10 -10 -10 -10 -10 -10 -11 -11 -11 -12 -12 -13 -13 -14 -14 -14 -14 -15 -15 -15 -15 -15 -15 -15 -15 -15 -15 -15 -15 -15 -15 -15 -15 -15 -15 -15 -15 -15 -15
-9 -9 -10 -10 -10 -10 -10 -10 -10 -11 -11 -12 -12 -12 -13 -13 -14 -14 -14 -14 -14 -15 -15 -15 -16 -15 -15 -15 -15 -15 -15 -15 -15 -15 -15 -16 -16 -16 -16 -16 -16 -16 -16
-10 -10 -10 -10 -10 -10 -10 -11 -10 -11 -12 -12 -12 -13 -13 -14 -14 -14 -14 -15 -15 -15 -15 -15 -15 -15 -15 -16 -15 -16 -16 -16 -16 -16 -16 -16 -16 -16 -17 -17 -17 -17 -17
-11 -11 -10 -10 -10 -11 -11 -11 -11 -12 -12 -13 -13 -13 -14 -14 -14 -14 -15 -15 -15 -15 -15 -15 -16 -16 -16 -16 -16 -16 -16 -16 -16 -16 -16 -17 -17 -17 -17 -17 -18 -18 -18
-11 -11 -11 -11 -11 -11 -11 -11 -12 -12 -13 -13 -13 -13 -14 -14 -14 -15 -15 -15 -15 -16 -16 -16 -16 -16 -16 -16 -16 -16 -16 -17 -17 -17 -17 -18 -18 -18 -18 -18 -18 -18 -18
Height
5934 5934 5933 5933 5932 5931 5930 5927 5925 5923 5919 5917 5917 5914 5910 5905 5898 5892 5887 5880 5871 5867 5856 5853 5845 5841 5833 5828 5817 5807 5800 5793 5784 5778 5765 5758 5750 5743 5735 5727 5720 5715 5712
5931 5931 5931 5929 5928 5926 5924 5922 5922 5920 5917 5915 5912 5908 5902 5896 5890 5885 5878 5872 5868 5861 5854 5846 5838 5831 5824 5817 5808 5799 5790 5781 5772 5766 5754 5746 5738 5729 5721 5711 5703 5698 5697
5928 5928 5927 5925 5924 5922 5920 5919 5916 5914 5913 5910 5908 5902 5895 5889 5883 5876 5872 5866 5861 5851 5841 5837 5829 5823 5816 5808 5800 5789 5780 5770 5761 5753 5745 5733 5725 5716 5707 5697 5688 5686 5681
5923 5923 5922 5920 5919 5918 5916 5914 5912 5910 5907 5904 5902 5895 5888 5881 5878 5873 5867 5860 5851 5841 5834 5829 5822 5814 5806 5799 5792 5781 5771 5763 5753 5745 5734 5724 5714 5704 5690 5682 5680 5674 5671
5918 5918 5918 5916 5914 5912 5911 5909 5907 5904 5902 5897 5894 5888 5882 5877 5872 5864 5858 5852 5843 5834 5824 5819 5812 5805 5796 5789 5781 5773 5763 5755 5746 5737 5725 5714 5704 5693 5684 5678 5672 5669 5667
5912 5912 5911 5910 5909 5907 5905 5903 5900 5898 5895 5891 5886 5883 5877 5871 5865 5855 5848 5841 5831 5820 5809 5804 5799 5795 5787 5780 5772 5764 5754 5746 5738 5729 5718 5707 5695 5686 5679 5675 5670 5666 5666
5905 5905 5904 5903 5901 5900 5898 5897 5894 5891 5888 5884 5880 5877 5871 5863 5855 5847 5838 5828 5818 5807 5804 5800 5794 5788 5780 5772 5764 5755 5747 5739 5730 5721 5713 5701 5690 5682 5677 5674 5669 5665 5663
5895 5896 5896 5896 5895 5893 5891 5889 5887 5883 5880 5876 5872 5867 5860 5856 5847 5839 5830 5822 5811 5805 5804 5795 5788 5782 5774 5766 5758 5750 5743 5734 5726 5717 5707 5696 5686 5680 5675 5672 5667 5664 5661
5886 5887 5888 5889 5888 5886 5884 5882 5880 5876 5872 5866 5862 5857 5849 5846 5838 5831 5823 5816 5808 5801 5797 5790 5782 5777 5769 5761 5755 5746 5739 5731 5722 5713 5703 5694 5685 5678 5673 5671 5669 5665 5661
5879 5880 5881 5881 5880 5879 5877 5875 5871 5864 5858 5857 5854 5845 5839 5835 5827 5821 5814 5806 5799 5795 5792 5783 5776 5770 5762 5756 5750 5743 5736 5728 5722 5714 5704 5695 5687 5677 5672 5669 5667 5664 5661
5871 5871 5873 5873 5872 5871 5869 5866 5859 5853 5853 5848 5843 5837 5831 5824 5818 5811 5804 5796 5790 5786 5783 5776 5769 5764 5758 5751 5745 5740 5733 5727 5721 5714 5705 5697 5687 5679 5673 5670 5666 5663 5660
5862 5863 5864 5864 5864 5863 5860 5855 5851 5847 5842 5838 5834 5827 5820 5812 5804 5799 5791 5787 5782 5778 5775 5769 5763 5758 5753 5747 5741 5737 5730 5725 5720 5713 5707 5700 5692 5682 5674 5670 5667 5664 5662
5852 5854 5856 5856 5856 5854 5850 5847 5843 5839 5834 5830 5825 5817 5809 5798 5791 5788 5784 5780 5774 5772 5767 5762 5756 5752 5746 5741 5737 5732 5727 5723 5719 5714 5708 5702 5695 5684 5675 5670 5668 5666 5664
5845 5846 5846 5846 5846 5844 5841 5838 5836 5831 5826 5821 5814 5807 5799 5795 5787 5781 5779 5773 5770 5766 5761 5756 5749 5744 5740 5738 5733 5728 5724 5721 5718 5714 5710 5704 5697 5690 5682 5676 5670 5667 5666
5837 5837 5838 5838 5836 5835 5833 5830 5826 5821 5817 5811 5805 5799 5793 5788 5782 5776 5772 5767 5764 5759 5753 5748 5744 5740 5737 5733 5729 5725 5721 5719 5716 5713 5709 5704 5699 5693 5687 5681 5675 5670 5667
5831 5831 5831 5830 5828 5826 5823 5818 5815 5811 5807 5802 5797 5792 5787 5783 5776 5771 5766 5762 5758 5754 5749 5743 5738 5736 5733 5729 5725 5722 5719 5717 5714 5712 5709 5705 5700 5695 5690 5685 5680 5676 5670
5823 5823 5822 5820 5818 5815 5811 5808 5804 5803 5799 5794 5790 5786 5781 5776 5770 5766 5761 5756 5752 5747 5742 5738 5735 5732 5728 5724 5721 5719 5716 5715 5712 5710 5708 5705 5700 5696 5692 5688 5683 5679 5677
5815 5814 5813 5810 5808 5804 5800 5797 5796 5794 5789 5786 5782 5778 5773 5767 5762 5758 5753 5749 5745 5741 5737 5734 5730 5727 5723 5719 5717 5716 5714 5712 5711 5709 5706 5703 5699 5696 5693 5689 5686 5683 5681
5806 5805 5802 5800 5798 5794 5792 5789 5788 5785 5781 5778 5774 5770 5765 5759 5754 5750 5746 5743 5740 5736 5733 5730 5726 5723 5720 5718 5715 5714 5712 5710 5708 5707 5704 5701 5698 5695 5692 5691 5688 5685 5682
5795 5794 5792 5790 5788 5786 5784 5783 5779 5776 5773 5770 5765 5761 5756 5751 5748 5744 5740 5737 5734 5733 5729 5725 5723 5720 5718 5716 5714 5713 5711 5709 5707 5704 5702 5699 5696 5694 5691 5690 5687 5685 5683
5785 5783 5783 5781 5781 5779 5777 5774 5771 5768 5765 5761 5757 5752 5748 5745 5742 5738 5734 5731 5730 5727 5725 5722 5719 5716 5715 5713 5712 5711 5709 5707 5704 5701 5699 5697 5694 5693 5690 5688 5685 5683 5682
5775 5774 5773 5772 5771 5769 5768 5765 5761 5757 5755 5750 5748 5745 5742 5739 5736 5731 5729 5727 5725 5723 5721 5718 5715 5713 5712 5711 5709 5708 5705 5703 5700 5698 5696 5693 5691 5689 5688 5686 5684 5682 5680
5766 5765 5765 5764 5763 5761 5758 5756 5754 5752 5748 5742 5740 5738 5734 5732 5731 5728 5724 5722 5720 5719 5717 5715 5713 5711 5710 5708 5706 5704 5701 5699 5696 5694 5692 5690 5688 5687 5685 5683 5681 5680 5678
5756 5755 5756 5756 5754 5752 5749 5748 5745 5742 5739 5736 5733 5732 5728 5726 5725 5722 5720 5718 5716 5715 5713 5711 5710 5709 5707 5705 5702 5699 5697 5694 5692 5690 5687 5686 5684 5683 5681 5680 5679 5677 5676
5748 5746 5745 5745 5745 5743 5740 5739 5736 5733 5731 5728 5726 5724 5722 5721 5719 5717 5715 5714 5713 5711 5709 5708 5707 5705 5703 5700 5697 5695 5692 5690 5687 5685 5683 5682 5680 5679 5678 5677 5676 5676 5675
5738 5738 5736 5735 5735 5733 5731 5729 5727 5725 5724 5721 5719 5718 5717 5716 5714 5713 5711 5710 5709 5708 5706 5704 5703 5700 5697 5695 5692 5690 5687 5685 5683 5681 5679 5678 5677 5677 5676 5675 5674 5673 5672
Wind_Speed
13 14 14 15 19 20 18 20 21 21 26 27 26 28 32 34 36 43 48 56 57 50 46 46 47 49 50 52 51 52 52 54 54 50 48 45 46 49 49 48 46 45 44
17 17 16 19 21 19 21 24 22 21 24 26 29 34 37 39 41 46 49 49 60 49 51 50 48 50 52 51 53 52 54 54 54 50 47 48 50 50 48 46 45 47 42
18 20 19 21 19 20 21 22 22 23 24 28 31 36 39 42 46 44 58 56 62 64 58 48 52 56 49 50 51 52 53 55 50 49 48 51 51 47 46 40 37 36 32
23 21 22 21 21 20 23 19 21 25 28 31 34 39 43 46 48 53 56 63 67 68 50 44 54 48 46 49 51 52 55 52 48 46 49 51 51 50 40 34 27 28 25
26 25 23 25 25 23 24 24 25 27 30 34 38 42 47 54 57 56 51 58 60 62 42 45 47 44 44 49 49 51 52 49 46 47 52 52 52 36 26 23 22 18 13
31 29 28 27 26 27 28 28 30 31 34 38 42 47 52 53 55 52 55 64 66 62 42 40 39 39 46 46 49 51 51 45 45 49 49 48 52 36 20 18 20 9 17
30 32 32 30 29 29 32 32 34 36 38 42 46 49 51 61 53 59 61 53 57 51 47 37 36 42 44 47 47 47 45 45 46 47 45 48 45 33 15 17 19 18 13
35 37 34 32 32 32 33 36 37 39 41 43 49 52 59 47 52 56 46 55 49 47 44 37 40 45 43 42 42 41 42 43 45 41 43 49 46 29 20 16 18 20 17
33 34 33 34 36 35 35 35 40 43 45 39 50 52 47 58 59 59 49 53 48 45 45 43 42 42 40 39 38 37 40 41 38 39 45 43 48 29 21 16 19 18 17
34 34 34 33 34 36 38 41 44 47 42 47 52 51 56 58 62 61 62 66 44 44 44 41 39 40 39 36 35 34 36 34 33 35 41 42 40 26 22 17 15 17 15
33 33 34 32 35 38 41 43 50 51 39 47 53 55 57 63 66 62 61 43 36 41 47 41 39 38 35 33 31 33 33 28 28 36 38 34 38 22 20 19 17 14 10
36 35 34 36 38 40 40 46 48 44 47 50 54 60 62 68 63 68 44 42 36 43 42 39 37 36 32 31 29 31 31 27 26 33 32 29 35 26 22 13 14 13 14
35 37 35 35 38 38 40 46 43 45 48 53 57 62 59 57 47 34 33 37 27 44 39 37 36 31 31 31 30 28 26 23 24 28 27 27 26 33 29 20 13 8 19
32 28 28 29 33 39 42 39 43 50 53 56 57 47 35 39 35 35 38 35 39 40 36 36 34 31 31 28 28 22 23 18 20 23 23 23 26 27 33 33 19 10 11
31 32 32 35 38 40 42 47 52 53 55 47 46 35 35 38 38 40 39 39 38 37 36 34 31 31 29 25 20 19 21 18 17 20 22 26 22 22 25 30 33 19 7
32 36 38 40 42 46 49 49 50 46 45 39 43 40 39 38 38 39 39 36 35 33 33 31 30 29 25 22 19 19 19 19 17 18 22 23 27 23 22 24 26 31 28
33 36 40 43 45 48 52 53 52 46 40 39 39 38 39 39 38 38 37 33 30 29 30 29 26 25 24 22 19 20 19 18 17 17 19 21 20 22 20 22 24 25 27
33 36 41 46 47 48 47 43 40 38 40 40 38 39 40 39 39 37 31 28 29 28 26 26 25 27 22 20 16 18 17 17 15 15 17 16 18 20 19 18 17 18 20
39 42 43 42 43 38 39 35 34 37 40 39 39 42 42 40 35 30 26 26 26 25 25 25 24 22 16 14 20 16 14 14 14 14 15 15 16 18 17 16 16 14 14
37 39 40 41 38 36 33 34 36 38 39 39 41 43 39 34 29 26 26 25 24 23 23 21 22 15 14 17 17 14 13 14 16 16 15 14 15 16 16 16 15 14 13
43 40 39 39 35 32 35 37 38 39 37 39 42 37 33 29 26 24 25 24 24 22 22 20 19 15 17 18 17 15 16 17 16 16 15 15 15 14 15 15 14 14 14
36 36 37 33 33 35 36 38 37 35 36 42 38 32 27 26 23 24 23 22 23 22 21 18 16 15 16 17 17 18 20 19 17 16 15 14 14 14 14 14 14 14 14
36 34 33 34 35 35 35 36 35 35 34 33 32 26 25 24 23 20 21 22 19 15 15 15 15 15 15 17 19 21 20 20 19 17 16 14 13 12 12 11 11 11 11
35 34 37 38 37 35 36 38 37 36 29 28 29 24 22 22 18 17 18 14 14 15 15 15 17 18 19 20 20 20 19 18 17 16 15 14 12 11 10 9 9 10 10
36 37 39 39 36 36 37 39 36 30 27 27 26 22 20 18 16 15 13 14 15 14 15 17 17 19 19 20 20 19 19 19 18 16 15 12 10 9 8 8 9 9 10
36 36 36 35 34 36 37 36 29 27 26 25 24 21 17 18 17 17 15 16 15 14 16 19 19 19 19 19 20 20 19 17 16 14 12 10 9 8 7 8 9 10 11
Wind_Direction
314 317 318 317 321 324 315 309 312 327 328 340 337 334 333 334 328 331 330 343 334 333 334 323 324 322 320 321 320 322 322 320 322 320 317 317 314 313 308 303 296 287 277
307 307 305 312 319 318 310 305 311 324 324 332 333 334 327 324 328 326 329 326 335 326 317 315 319 318 318 320 323 320 320 322 323 324 323 319 318 310 309 302 290 287 288
292 296 306 312 315 317 320 304 306 321 324 327 329 325 318 321 324 322 329 327 329 328 326 318 322 320 320 322 320 318 321 324 326 325 325 323 319 315 314 305 300 297 291
290 294 304 312 315 319 316 316 307 313 319 319 320 316 312 322 323 321 326 326 323 328 318 318 312 318 321 320 319 322 324 325 327 326 325 324 324 326 316 316 312 313 303
282 284 294 304 309 308 311 310 303 308 310 309 312 313 320 320 320 314 320 323 322 316 308 310 312 319 319 321 321 323 324 326 328 329 326 328 333 326 327 332 319 319 316
280 282 289 297 290 292 295 300 301 303 304 308 311 318 321 317 322 323 317 317 315 311 290 302 310 315 322 324 324 323 326 331 331 329 329 335 339 341 348 347 338 338 340
278 278 284 283 284 286 291 295 297 301 307 309 313 316 312 322 316 322 317 327 332 329 312 320 320 321 328 327 323 329 330 331 331 332 334 337 341 341 352 343 341 339 329
273 276 278 281 281 284 287 290 296 299 304 308 310 305 303 321 316 324 328 333 335 338 330 325 323 326 326 322 327 330 330 331 335 333 340 344 341 342 339 347 356 353 349
271 273 276 279 283 283 287 296 297 297 292 299 299 312 321 325 322 321 312 321 326 327 326 325 326 323 322 324 327 331 333 336 338 340 345 345 339 342 339 342 352 346 345
269 272 275 279 282 284 291 292 288 281 290 313 319 321 311 315 311 313 319 310 311 320 322 323 324 322 323 325 329 333 335 340 342 345 347 344 341 344 333 334 342 344 346
270 270 271 276 278 284 289 285 284 288 311 320 318 315 314 309 312 318 322 322 314 321 322 322 323 322 322 327 328 334 337 341 343 348 350 353 348 353 346 342 342 358 359
269 270 268 270 274 281 286 287 295 311 319 316 315 310 309 309 307 312 315 312 300 320 319 321 321 321 322 326 325 332 337 342 348 350 349 355 357 1 8 346 0 19 8
266 273 275 273 278 284 286 295 309 314 311 309 309 309 315 313 313 320 316 316 303 319 319 318 320 321 323 328 324 327 334 333 342 353 355 356 351 12 19 3 354 356 3
269 273 276 275 278 287 293 303 304 303 307 312 310 314 324 327 320 316 311 313 313 315 318 319 323 323 324 322 322 326 336 331 337 351 349 356 1 3 12 22 13 353 0
266 270 273 281 285 288 291 296 299 301 307 308 317 314 317 315 313 312 314 317 316 319 319 319 319 318 320 324 330 334 334 327 322 344 338 342 356 8 9 13 22 29 35
272 276 280 285 288 289 294 299 303 308 309 304 309 311 313 310 313 314 315 314 315 315 314 317 319 321 324 324 328 332 329 328 312 324 339 349 352 2 8 15 20 17 25
275 280 283 286 288 292 298 301 303 305 305 308 310 309 308 311 313 310 311 312 313 314 318 319 321 325 326 325 325 331 328 327 316 310 328 341 352 358 2 7 16 19 15
279 284 288 290 292 295 298 301 306 308 306 312 309 307 309 312 310 310 313 316 314 317 319 318 318 321 326 332 329 328 325 327 319 314 323 333 342 351 357 2 4 9 9
281 283 290 291 293 298 302 302 305 306 309 308 305 310 312 310 309 313 314 314 316 317 315 318 318 319 330 343 343 340 344 337 328 329 329 334 338 341 350 351 355 358 357
283 288 288 292 298 301 298 296 304 305 305 304 306 311 309 307 312 314 312 315 314 312 319 320 324 321 330 327 328 322 331 334 334 332 332 334 334 331 334 337 343 349 353
280 283 287 292 295 291 295 300 300 301 305 306 309 307 305 309 312 312 314 313 309 311 316 317 319 315 320 325 322 314 317 320 322 321 319 319 322 322 323 326 331 338 340
278 284 288 289 291 293 295 297 300 303 305 306 306 303 305 309 313 312 309 308 312 311 314 316 326 322 319 320 316 315 317 321 322 324 324 325 322 318 316 317 318 325 330
280 284 287 292 292 293 300 299 301 304 305 300 301 305 308 310 311 309 305 308 306 309 316 321 321 321 321 315 312 312 314 315 317 318 318 316 314 312 314 315 322 326 328
284 280 285 287 294 299 296 296 304 307 304 301 303 303 300 304 306 307 309 306 308 310 315 313 311 304 304 308 311 313 313 313 315 318 318 318 316 315 315 316 321 328 327
282 286 288 289 291 294 293 298 303 298 296 296 298 299 302 301 304 309 310 309 309 312 314 310 307 307 309 311 311 313 313 314 315 314 313 310 309 308 309 315 321 323 322
286 285 289 291 290 289 295 299 296 295 296 298 299 299 301 301 298 297 305 306 308 312 309 309 310 311 311 312 311 311 312 313 311 310 310 307 309 312 314 318 321 324 328